[Iaude] MPEC O33: 2019 GP187 [a=43.69,e=0.01,i=4.2,H=9.6]
    mpec at cfa.harvard.edu 
    mpec at cfa.harvard.edu
       
    Sat Jul 20 05:50:52 EDT 2024
    
    
  
M.P.E.C. 2024-O33                                 Issued 2024 July 20, 09:49 UT
     The Minor Planet Electronic Circulars contain information on unusual
         minor planets, routine data on comets and natural satellites,
         and occasional editorial announcements.  They are published
    on behalf of Division F of the International Astronomical Union by the
          Minor Planet Center, Smithsonian Astrophysical Observatory,
                          Cambridge, MA 02138, U.S.A.
			  
             Prepared using the Tamkin Foundation Computer Network
                              MPC at CFA.HARVARD.EDU
            URL https://www.minorplanetcenter.net/    ISSN 1523-6714
                                   2019 GP187                                   
Observations:
     K19GI7P 1C2018 04 22.37285112 15 24.90 +02 52 00.0                WEO033T09
     K19GI7P 1C2019 02 05.54457812 25 00.80 +01 47 22.4                WEO033T09
     K19GI7P 1C2019 03 03.57406912 23 36.12 +01 58 05.5                WEO033T09
     K19GI7P 1C2019 03 03.61433812 23 35.96 +01 58 06.7                WEO033T09
     K19GI7P*4C2019 04 04.44382 12 21 21.19 +02 12 58.5          25.9 g1EO033T09
     K19GI7P 4C2019 04 04.46353 12 21 21.10 +02 12 59.0          26.3 g1EO033T09
     K19GI7P 4C2019 04 04.48669 12 21 20.99 +02 12 59.6          26.3 g1EO033T09
     K19GI7P 4C2019 04 04.50558 12 21 20.92 +02 13 00.0          26.0 g1EO033T09
     K19GI7P 4C2019 04 04.51607 12 21 20.87 +02 13 00.3          26.1 g1EO033T09
     K19GI7P 4C2019 04 05.52660 12 21 16.54 +02 13 27.0          25.5 r1EO033T09
     K19GI7P 4C2019 04 05.54963 12 21 16.44 +02 13 27.7          26.4 r1EO033T09
     K19GI7P 4C2019 04 05.57896 12 21 16.30 +02 13 28.7          26.4 r1EO033T09
     K19GI7P 1C2019 04 06.34382412 21 13.06 +02 13 48.5                WEO033T09
     K19GI7P 1C2020 01 30.64993812 29 53.82 +01 13 51.6                WEO033T09
Observer details:
T09 Subaru Telescope, Maunakea.  Observers , H. Aihara, Y. AlSayyad, M. Ando,
    R. Armstrong, J. Bosch, E. Egami, H. Furusawa, J. Furusawa, S. Harasawa,
    Y. Harikane, B.-C. Hsieh, H. Ikeda, K. Ito, I. Iwata, T. Kodama, M. Koike,
    M. Kokubo, Y. Komiyama, X. Li, Y. Liang, Y.-T. Lin, R. H. Lupton, N. B.
    Lust, L. A. MacArthur, K. Mawatari, S. Mineo, H. Miyatake, S. Miyazaki, S.
    More, T. Morishima, H. Murayama, K. Nakajima, F. Nakata, A. J. Nishizawa,
    M. Oguri, N. Okabe, Y. Okura, Y. Ono, K. Osato, M. Ouchi, Y.-C. Pan, A. A.
    Plazas Malagon, P. A. Price, S. L. Reed, E. S. Rykoff, T. Shibuya, M.
    Simunovic, M. A. Strauss, K. Sugimori, Y. Suto, N. Suzuki, M. Takada, Y.
    Takagi, T. Takata, S. Takita, M. Tanaka, S. Tang, D. S. Taranu, T. Terai,
    Y. Toba, E. L. Turner, H. Uchiyama, B. Vijarnwannaluk, C. Z. Waters, Y.
    Yamada, N. Yamamoto, T. Yamashita.  Measurers S. Deen, A. Yamauchi.  8.3-m
    Subaru Telescope + CCD, 8.2-m f/2.0 reflector + CCD(HSC).
Orbital elements:
2019 GP187                                                                      
Epoch 2024 Oct. 17.0 TT = JDT 2460600.5                 Alexandersen            
M 313.39451              (2000.0)            P               Q                  
n   0.00341311     Peri.  156.57468     -0.52261878     +0.84953812             
a  43.6886791      Node    81.84756     -0.79323646     -0.45365756             
e   0.0075079      Incl.    4.15923     -0.31248286     -0.26922072             
P 289              H    9.62          G   0.15           U   6                  
Residuals in seconds of arc
180422 T09  0.0   0.0     190404 T09  0.0   0.0     190405 T09  0.1+  0.1-
190205 T09  0.1+  0.0     190404 T09  0.1-  0.0     190405 T09  0.1-  0.2+
190303 T09  0.1-  0.0     190404 T09  0.0   0.1-    190406 T09  0.1+  0.1-
190303 T09  0.1-  0.1+    190404 T09  0.0   0.1-    200130 T09  0.0   0.0
190404 T09  0.0   0.1+    190405 T09  0.1+  0.1-
Ephemeris:
2019 GP187               a,e,i = 43.69, 0.01, 4                  q = 43.3607
Date    TT    R. A. (2000) Decl.     Delta      r    Elong.  Phase     V
2024 06 20    12 41 08.3 -00 07 51  43.2673 43.4664   100.6     1.3    26.2
...
2024 07 05    12 41 12.7 -00 09 54  43.5181 43.4662    86.4     1.3    26.2
...
2024 07 13    12 41 22.7 -00 11 47  43.6513 43.4661    78.8     1.3    26.2
...
2024 07 19    12 41 33.6 -00 13 33  43.7490 43.4660    73.2     1.3    26.2
2024 07 20    12 41 35.7 -00 13 52  43.7650 43.4660    72.2     1.3    26.2
2024 07 21    12 41 37.8 -00 14 12  43.7810 43.4659    71.3     1.3    26.2
...
2024 07 27    12 41 52.5 -00 16 20  43.8745 43.4658    65.7     1.2    26.2
...
2024 08 04    12 42 16.1 -00 19 35  43.9927 43.4657    58.1     1.1    26.2
...
2024 08 19    12 43 12.0 -00 26 44  44.1870 43.4655    44.1     0.9    26.2
M. P. C. Staff               (C) Copyright 2024 MPC           M.P.E.C. 2024-O33
    
    
More information about the Iaude
mailing list